contact:dominique.lefevre@mio.osupytheas.fr, maurice.libes@osupytheas.fr, didier.mallarino@osupytheas.fr
Project:EMSO http://www.emso-fr.org/EMSO-France
Depth: 2436.0 m
Title:EMSO Ligure Ouest : Data MII capteur AQUADOPP
Date,Latitude,Longitude,X_East,Y_North,Z_Up,Amplitude_X,Amplitude_Y,Amplitude_Z,Batterie,SoundSpeed,Heading,Pitch,Roll,Pressure,TIS,Speed,Direction
, degrees North, degrees East, m.s-1, m.s-1,m.s-1, 1, 1, 1, Volt, m.s-1, degree, degree, degree, dbar, degree_C, m.s-1, degree
2023-11-18T00:04:02,42.805,6.029,-0.005,0.008,-0.026,105.0,104.0,103.0,13.4,1505.2,352.7,-0.8,1.8,2471.592,13.29,0.009,328.0
2023-11-18T00:07:02,42.805,6.029,-0.015,0.006,-0.008,105.0,104.0,103.0,13.3,1505.2,1.7,-0.8,1.8,2471.559,13.29,0.016,291.8
2023-11-18T00:10:03,42.805,6.029,0.005,0.013,-0.029,104.0,104.0,104.0,13.4,1505.2,337.0,-0.8,1.9,2471.54,13.29,0.013,21.0
2023-11-18T00:13:03,42.805,6.029,-0.013,0.002,-0.056,105.0,104.0,103.0,13.4,1505.2,346.5,-0.8,1.8,2471.525,13.29,0.013,278.7
2023-11-18T00:16:03,42.805,6.029,-0.001,0.015,-0.024,105.0,106.0,103.0,13.4,1505.2,347.7,-0.8,1.8,2471.557,13.29,0.015,356.2
2023-11-18T00:19:03,42.805,6.029,0.0,-0.006,-0.028,106.0,104.0,104.0,13.4,1505.2,343.3,-0.8,1.8,2471.511,13.29,0.006,180.0
2023-11-18T00:22:02,42.805,6.029,-0.024,0.038,-0.011,104.0,104.0,104.0,13.4,1505.2,344.6,-0.8,1.8,2471.498,13.29,0.044,327.7
2023-11-18T00:25:03,42.805,6.029,-0.016,0.014,-0.034,104.0,104.0,104.0,13.4,1505.2,341.8,-0.8,1.8,2471.52,13.29,0.021,311.2
2023-11-18T00:28:03,42.805,6.029,-0.027,0.006,-0.025,105.0,104.0,103.0,13.4,1505.2,350.6,-0.8,1.8,2471.542,13.29,0.027,282.5
2023-11-18T00:31:03,42.805,6.029,-0.002,-0.003,-0.036,104.0,104.0,103.0,13.4,1505.2,351.8,-0.8,1.8,2471.471,13.29,0.003,213.7
2023-11-18T00:34:03,42.805,6.029,0.006,0.007,0.003,106.0,105.0,102.0,13.4,1505.2,356.3,-0.7,1.8,2471.481,13.29,0.009,40.6
2023-11-18T00:37:02,42.805,6.029,-0.014,0.011,-0.034,104.0,105.0,104.0,13.3,1505.2,347.1,-0.8,1.8,2471.492,13.29,0.017,308.2
2023-11-18T00:40:03,42.805,6.029,-0.006,0.018,-0.011,105.0,104.0,103.0,13.4,1505.2,357.0,-0.8,1.8,2471.496,13.29,0.018,341.6
2023-11-18T00:43:03,42.805,6.029,-0.015,0.007,-0.011,104.0,103.0,104.0,13.4,1505.2,343.3,-0.8,1.8,2471.467,13.29,0.016,295.0
2023-11-18T00:46:03,42.805,6.029,-0.01,-0.008,-0.051,105.0,105.0,103.0,13.4,1505.2,348.1,-0.8,1.8,2471.494,13.29,0.012,231.3
2023-11-18T00:49:03,42.805,6.029,-0.018,0.002,-0.013,104.0,105.0,103.0,13.4,1505.2,343.7,-0.8,1.8,2471.505,13.29,0.018,276.3
2023-11-18T00:52:02,42.805,6.029,-0.019,0.016,-0.034,105.0,104.0,103.0,13.3,1505.2,344.5,-0.8,1.8,2471.5,13.29,0.024,310.1
2023-11-18T00:55:03,42.805,6.029,-0.036,0.006,-0.052,105.0,105.0,104.0,13.4,1505.2,337.0,-0.7,1.8,2471.51,13.29,0.036,279.5
2023-11-18T00:58:03,42.805,6.029,-0.024,0.0,-0.027,104.0,104.0,104.0,13.4,1505.2,341.2,-0.7,1.8,2471.521,13.29,0.024,270.0
2023-11-18T01:04:02,42.805,6.029,-0.002,0.002,-0.029,105.0,105.0,104.0,13.3,1505.2,351.9,-0.8,1.8,2471.553,13.29,0.002,315.0
2023-11-18T01:07:02,42.805,6.029,-0.012,0.016,-0.024,107.0,104.0,104.0,13.4,1505.2,0.0,-0.8,1.8,2471.527,13.29,0.02,323.1
2023-11-18T01:10:03,42.805,6.029,-0.018,0.005,-0.012,106.0,104.0,104.0,13.4,1505.2,349.3,-0.8,1.8,2471.531,13.29,0.018,285.5
2023-11-18T01:13:03,42.805,6.029,0.003,-0.001,-0.012,105.0,104.0,105.0,13.4,1505.2,340.5,-0.7,1.8,2471.496,13.29,0.003,108.4
2023-11-18T01:16:03,42.805,6.029,-0.018,0.018,-0.037,105.0,104.0,103.0,13.3,1505.2,356.1,-0.7,1.8,2471.484,13.29,0.025,315.0
2023-11-18T01:19:03,42.805,6.029,-0.045,0.015,-0.026,104.0,104.0,104.0,13.3,1505.2,335.6,-0.8,1.8,2471.517,13.29,0.047,288.4
2023-11-18T01:22:02,42.805,6.029,-0.006,-0.006,-0.031,104.0,106.0,103.0,13.4,1505.2,342.0,-0.8,1.8,2471.485,13.29,0.008,225.0
2023-11-18T01:25:03,42.805,6.029,-0.014,0.01,-0.004,107.0,104.0,104.0,13.4,1505.2,355.7,-0.8,1.8,2471.491,13.29,0.017,305.5
2023-11-18T01:28:03,42.805,6.029,-0.014,0.024,-0.011,106.0,104.0,104.0,13.4,1505.2,352.4,-0.8,1.8,2471.492,13.29,0.027,329.7
2023-11-18T01:31:03,42.805,6.029,-0.039,0.015,-0.04,104.0,104.0,103.0,13.4,1505.2,343.6,-0.8,1.8,2471.457,13.29,0.041,291.0
2023-11-18T01:34:03,42.805,6.029,-0.011,0.011,-0.046,105.0,107.0,103.0,13.3,1505.2,347.1,-0.8,1.8,2471.501,13.29,0.015,315.0
2023-11-18T01:37:02,42.805,6.029,-0.02,0.01,-0.024,105.0,105.0,103.0,13.3,1505.2,348.9,-0.8,1.8,2471.497,13.29,0.022,296.6
2023-11-18T01:40:03,42.805,6.029,-0.016,0.014,-0.028,104.0,103.0,103.0,13.4,1505.2,342.3,-0.8,1.8,2471.49,13.29,0.021,311.2
2023-11-18T01:43:03,42.805,6.029,-0.024,0.005,-0.045,106.0,104.0,103.0,13.3,1505.2,354.1,-0.8,1.8,2471.45,13.29,0.024,281.8
2023-11-18T01:46:03,42.805,6.029,-0.013,0.01,-0.037,105.0,103.0,103.0,13.3,1505.2,341.8,-0.8,1.8,2471.486,13.29,0.016,307.6
2023-11-18T01:49:03,42.805,6.029,-0.014,0.029,-0.017,104.0,105.0,103.0,13.4,1505.2,345.5,-0.8,1.8,2471.456,13.29,0.032,334.2
2023-11-18T01:52:02,42.805,6.029,-0.018,-0.002,-0.006,105.0,104.0,104.0,13.4,1505.2,336.1,-0.7,1.8,2471.424,13.29,0.018,263.7
2023-11-18T01:55:03,42.805,6.029,-0.022,0.002,-0.036,104.0,105.0,103.0,13.3,1505.2,339.9,-0.8,1.8,2471.459,13.29,0.022,275.2
2023-11-18T01:58:03,42.805,6.029,-0.022,0.01,-0.028,104.0,105.0,104.0,13.4,1505.2,343.8,-0.8,1.8,2471.494,13.29,0.024,294.4
2023-11-18T02:04:02,42.805,6.029,-0.012,0.015,0.001,105.0,104.0,104.0,13.3,1505.2,339.8,-0.8,1.8,2471.514,13.29,0.019,321.3
2023-11-18T02:07:03,42.805,6.029,-0.02,-0.006,-0.055,105.0,104.0,104.0,13.3,1505.2,340.7,-0.8,1.8,2471.517,13.29,0.02,253.3
2023-11-18T02:10:03,42.805,6.029,-0.036,-0.001,-0.037,105.0,103.0,102.0,13.4,1505.2,334.5,-0.8,1.8,2471.493,13.29,0.036,268.4
2023-11-18T02:13:03,42.805,6.029,-0.008,-0.006,-0.034,105.0,103.0,103.0,13.3,1505.2,341.8,-0.7,1.8,2471.483,13.29,0.01,233.1
2023-11-18T02:16:03,42.805,6.029,0.002,0.0,-0.03,103.0,104.0,103.0,13.4,1505.2,337.0,-0.8,1.8,2471.453,13.29,0.002,90.0
2023-11-18T02:19:03,42.805,6.029,-0.01,0.026,-0.02,104.0,105.0,103.0,13.4,1505.2,357.1,-0.8,1.8,2471.461,13.29,0.027,339.0
2023-11-18T02:22:03,42.805,6.029,-0.013,0.028,-0.038,105.0,105.0,103.0,13.4,1505.2,342.3,-0.8,1.8,2471.453,13.29,0.03,335.1
2023-11-18T02:25:03,42.805,6.029,-0.006,0.014,0.0,105.0,104.0,103.0,13.4,1505.2,344.1,-0.8,1.8,2471.463,13.29,0.015,336.8
2023-11-18T02:28:03,42.805,6.029,-0.019,0.03,-0.039,104.0,103.0,104.0,13.3,1505.2,350.9,-0.7,1.8,2471.457,13.29,0.035,327.7
2023-11-18T02:31:03,42.805,6.029,-0.005,0.037,-0.002,104.0,105.0,104.0,13.3,1505.2,349.4,-0.8,1.8,2471.461,13.29,0.037,352.3
2023-11-18T02:34:03,42.805,6.029,-0.032,0.018,-0.035,106.0,103.0,103.0,13.4,1505.2,349.0,-0.8,1.8,2471.466,13.29,0.036,299.4
2023-11-18T02:37:03,42.805,6.029,-0.009,0.022,-0.041,105.0,104.0,103.0,13.4,1505.2,1.8,-0.8,1.8,2471.435,13.29,0.023,337.8
2023-11-18T02:40:03,42.805,6.029,-0.014,-0.001,-0.018,106.0,105.0,104.0,13.4,1505.2,340.4,-0.7,1.8,2471.446,13.29,0.014,265.9
2023-11-18T02:43:03,42.805,6.029,-0.02,0.044,-0.009,104.0,105.0,103.0,13.4,1505.2,359.0,-0.8,1.8,2471.419,13.29,0.048,335.6
2023-11-18T02:46:03,42.805,6.029,-0.012,0.019,-0.032,106.0,106.0,104.0,13.4,1505.2,343.5,-0.8,1.8,2471.411,13.29,0.022,327.7
2023-11-18T02:49:03,42.805,6.029,-0.017,0.025,0.008,106.0,104.0,104.0,13.4,1505.2,340.7,-0.8,1.8,2471.432,13.29,0.03,325.8
2023-11-18T02:52:02,42.805,6.029,-0.027,0.032,-0.028,104.0,104.0,104.0,13.4,1505.2,340.8,-0.8,1.8,2471.446,13.29,0.041,319.8
2023-11-18T02:55:03,42.805,6.029,-0.027,0.007,-0.024,104.0,105.0,103.0,13.3,1505.2,341.5,-0.8,1.8,2471.443,13.29,0.027,284.5
2023-11-18T02:58:03,42.805,6.029,0.005,0.009,-0.047,106.0,105.0,103.0,13.4,1505.2,346.9,-0.8,1.8,2471.413,13.29,0.01,29.1
2023-11-18T03:04:02,42.805,6.029,-0.018,0.025,-0.003,104.0,105.0,103.0,13.3,1505.2,356.5,-0.8,1.8,2471.495,13.29,0.03,324.2
2023-11-18T03:07:03,42.805,6.029,-0.001,0.021,-0.006,104.0,104.0,103.0,13.3,1505.2,348.6,-0.8,1.9,2471.447,13.29,0.021,357.3
2023-11-18T03:10:03,42.805,6.029,-0.008,0.02,-0.016,106.0,103.0,104.0,13.3,1505.2,0.0,-0.7,1.8,2471.439,13.29,0.021,338.2
2023-11-18T03:13:03,42.805,6.029,-0.033,0.019,-0.031,104.0,105.0,103.0,13.4,1505.2,335.6,-0.8,1.8,2471.457,13.29,0.038,299.9
2023-11-18T03:16:03,42.805,6.029,-0.006,0.049,0.023,104.0,105.0,102.0,13.4,1505.2,359.0,-0.8,1.8,2471.458,13.29,0.049,353.0
2023-11-18T03:19:03,42.805,6.029,-0.011,0.041,-0.003,105.0,105.0,103.0,13.4,1505.2,352.5,-0.7,1.8,2471.446,13.29,0.042,345.0
2023-11-18T03:22:03,42.805,6.029,0.007,0.032,-0.032,104.0,103.0,104.0,13.4,1505.2,1.7,-0.8,1.8,2471.423,13.29,0.032,12.3
2023-11-18T03:25:03,42.805,6.029,-0.01,0.011,-0.024,105.0,104.0,105.0,13.4,1505.2,345.7,-0.8,1.8,2471.445,13.29,0.014,317.7
2023-11-18T03:28:03,42.805,6.029,-0.01,0.028,-0.022,105.0,106.0,104.0,13.4,1505.2,355.0,-0.7,1.8,2471.459,13.29,0.029,340.4
2023-11-18T03:31:03,42.805,6.029,-0.018,0.032,-0.017,105.0,104.0,104.0,13.3,1505.2,353.9,-0.8,1.8,2471.415,13.29,0.036,330.6
2023-11-18T03:34:03,42.805,6.029,-0.005,0.038,-0.038,105.0,105.0,102.0,13.4,1505.2,358.2,-0.8,1.9,2471.41,13.29,0.038,352.5
2023-11-18T03:37:03,42.805,6.029,-0.004,0.028,-0.057,105.0,105.0,103.0,13.3,1505.2,351.2,-0.8,1.8,2471.416,13.29,0.028,351.9
2023-11-18T03:40:03,42.805,6.029,0.001,0.026,-0.009,105.0,105.0,104.0,13.4,1505.2,357.4,-0.8,1.8,2471.418,13.29,0.026,2.2
2023-11-18T03:43:03,42.805,6.029,0.009,0.027,-0.028,104.0,105.0,103.0,13.4,1505.2,343.9,-0.8,1.8,2471.397,13.29,0.028,18.4
2023-11-18T03:46:03,42.805,6.029,-0.009,0.008,0.001,104.0,105.0,103.0,13.4,1505.2,334.8,-0.7,1.8,2471.44,13.29,0.012,311.6
2023-11-18T03:49:03,42.805,6.029,0.003,0.029,-0.054,105.0,104.0,103.0,13.4,1505.2,0.9,-0.7,1.8,2471.425,13.29,0.029,5.9
2023-11-18T03:52:03,42.805,6.029,-0.002,0.03,-0.018,106.0,105.0,104.0,13.3,1505.2,352.5,-0.8,1.8,2471.42,13.29,0.03,356.2
2023-11-18T03:55:03,42.805,6.029,-0.007,0.007,-0.011,105.0,106.0,102.0,13.3,1505.2,359.1,-0.8,1.8,2471.455,13.29,0.009,315.0
2023-11-18T03:58:03,42.805,6.029,0.0,0.0,-0.03,104.0,104.0,103.0,13.4,1505.2,355.6,-0.7,1.8,2471.418,13.29,0.0,0.0
2023-11-18T04:04:02,42.805,6.029,-0.011,0.027,-0.009,105.0,105.0,103.0,13.4,1505.2,353.9,-0.8,1.8,2471.449,13.29,0.029,337.8
2023-11-18T04:07:02,42.805,6.029,-0.005,0.024,-0.035,105.0,105.0,103.0,13.4,1505.2,358.0,-0.8,1.8,2471.449,13.29,0.024,348.2
2023-11-18T04:10:03,42.805,6.029,-0.03,0.02,-0.025,106.0,102.0,104.0,13.3,1505.2,342.7,-0.8,1.8,2471.457,13.29,0.036,303.7
2023-11-18T04:13:03,42.805,6.029,-0.012,0.037,-0.034,103.0,104.0,104.0,13.4,1505.2,350.9,-0.7,1.8,2471.46,13.29,0.038,342.0
2023-11-18T04:16:03,42.805,6.029,-0.014,0.013,0.001,104.0,105.0,103.0,13.3,1505.2,340.2,-0.8,1.8,2471.465,13.29,0.019,312.9
2023-11-18T04:19:03,42.805,6.029,-0.019,0.021,-0.001,105.0,106.0,103.0,13.4,1505.2,338.3,-0.8,1.8,2471.446,13.29,0.028,317.9
2023-11-18T04:22:03,42.805,6.029,-0.017,0.036,-0.018,105.0,105.0,103.0,13.4,1505.2,357.1,-0.8,1.8,2471.448,13.29,0.039,334.7
2023-11-18T04:25:03,42.805,6.029,-0.026,0.05,-0.007,105.0,105.0,104.0,13.4,1505.2,339.3,-0.7,1.8,2471.459,13.29,0.056,332.5
2023-11-18T04:28:03,42.805,6.029,-0.006,0.014,0.0,105.0,105.0,104.0,13.4,1505.2,359.0,-0.7,1.8,2471.473,13.29,0.015,336.8
2023-11-18T04:31:03,42.805,6.029,-0.004,0.027,-0.007,105.0,107.0,102.0,13.4,1505.2,348.3,-0.8,1.9,2471.44,13.29,0.027,351.6
2023-11-18T04:34:03,42.805,6.029,-0.007,0.023,-0.021,105.0,105.0,104.0,13.4,1505.2,357.4,-0.7,1.8,2471.388,13.29,0.024,343.1
2023-11-18T04:37:02,42.805,6.029,-0.017,0.015,-0.029,105.0,104.0,105.0,13.4,1505.2,341.0,-0.8,1.8,2471.455,13.29,0.022,311.4
2023-11-18T04:40:03,42.805,6.029,-0.021,0.012,-0.05,105.0,104.0,103.0,13.3,1505.2,337.7,-0.8,1.8,2471.389,13.29,0.024,299.7
2023-11-18T04:43:03,42.805,6.029,0.009,0.028,-0.035,106.0,104.0,102.0,13.4,1505.2,0.9,-0.7,1.8,2471.419,13.29,0.029,17.8
2023-11-18T04:46:03,42.805,6.029,0.0,0.024,-0.021,105.0,104.0,103.0,13.4,1505.2,352.5,-0.8,1.8,2471.421,13.29,0.024,0.0
2023-11-18T04:49:03,42.805,6.029,-0.027,0.021,-0.02,105.0,105.0,103.0,13.3,1505.2,345.3,-0.7,1.8,2471.426,13.29,0.034,307.9
2023-11-18T04:52:03,42.805,6.029,-0.021,0.033,0.01,106.0,105.0,103.0,13.4,1505.2,341.2,-0.7,1.8,2471.435,13.29,0.039,327.5
2023-11-18T04:55:03,42.805,6.029,-0.038,0.023,-0.04,104.0,107.0,105.0,13.3,1505.2,338.3,-0.8,1.8,2471.385,13.29,0.044,301.2
2023-11-18T04:58:03,42.805,6.029,-0.024,0.033,-0.001,104.0,105.0,103.0,13.4,1505.2,342.8,-0.8,1.8,2471.459,13.29,0.04,324.0
2023-11-18T05:04:03,42.805,6.029,-0.022,0.021,-0.022,105.0,105.0,103.0,13.3,1505.2,347.1,-0.8,1.9,2471.476,13.29,0.03,313.7
2023-11-18T05:07:03,42.805,6.029,0.013,0.01,-0.003,105.0,104.0,104.0,13.3,1505.2,348.2,-0.8,1.8,2471.458,13.29,0.016,52.4
2023-11-18T05:10:03,42.805,6.029,-0.007,0.028,0.0,105.0,104.0,105.0,13.3,1505.2,348.6,-0.8,1.8,2471.442,13.29,0.028,346.0
2023-11-18T05:13:03,42.805,6.029,-0.018,0.02,-0.039,105.0,104.0,104.0,13.3,1505.2,346.7,-0.8,1.8,2471.454,13.29,0.026,318.0
2023-11-18T05:16:03,42.805,6.029,-0.007,0.055,0.014,106.0,105.0,104.0,13.4,1505.2,344.0,-0.8,1.8,2471.432,13.29,0.055,352.7
2023-11-18T05:19:03,42.805,6.029,-0.035,0.008,-0.022,106.0,105.0,103.0,13.3,1505.2,338.3,-0.7,1.8,2471.479,13.29,0.035,282.9
2023-11-18T05:22:03,42.805,6.029,-0.003,0.016,-0.047,106.0,106.0,104.0,13.3,1505.2,341.8,-0.8,1.8,2471.474,13.29,0.016,349.4
2023-11-18T05:25:03,42.805,6.029,-0.029,0.043,-0.063,106.0,105.0,103.0,13.4,1505.2,0.0,-0.8,1.8,2471.435,13.29,0.051,326.0
2023-11-18T05:28:03,42.805,6.029,0.008,0.029,0.022,105.0,105.0,102.0,13.4,1505.2,0.0,-0.8,1.8,2471.457,13.29,0.03,15.4
2023-11-18T05:31:03,42.805,6.029,0.0,0.029,-0.017,104.0,105.0,104.0,13.4,1505.2,347.3,-0.8,1.8,2471.456,13.29,0.028,0.0
2023-11-18T05:34:03,42.805,6.029,-0.02,0.013,-0.04,105.0,104.0,105.0,13.4,1505.2,349.6,-0.8,1.8,2471.414,13.29,0.023,303.0
2023-11-18T05:37:03,42.805,6.029,-0.012,0.012,-0.039,105.0,106.0,104.0,13.4,1505.2,354.9,-0.8,1.8,2471.445,13.29,0.016,315.0
2023-11-18T05:40:03,42.805,6.029,-0.008,0.007,-0.032,105.0,105.0,105.0,13.3,1505.2,352.6,-0.7,1.8,2471.437,13.29,0.01,311.2
2023-11-18T05:43:03,42.805,6.029,0.0,0.035,-0.028,106.0,105.0,103.0,13.3,1505.2,358.1,-0.8,1.8,2471.432,13.29,0.035,0.0
2023-11-18T05:46:03,42.805,6.029,-0.023,0.025,-0.005,105.0,106.0,103.0,13.4,1505.2,351.1,-0.8,1.8,2471.464,13.29,0.033,317.4
2023-11-18T05:49:03,42.805,6.029,-0.003,0.038,-0.031,106.0,104.0,105.0,13.4,1505.2,354.2,-0.7,1.8,2471.412,13.29,0.038,355.5
2023-11-18T05:52:03,42.805,6.029,-0.008,0.01,-0.023,105.0,105.0,103.0,13.3,1505.2,334.1,-0.8,1.8,2471.441,13.29,0.012,321.3
2023-11-18T05:55:03,42.805,6.029,-0.022,0.041,0.012,104.0,105.0,103.0,13.3,1505.2,0.0,-0.8,1.9,2471.433,13.29,0.046,331.8
2023-11-18T05:58:03,42.805,6.029,-0.008,0.017,-0.005,104.0,104.0,105.0,13.4,1505.2,343.0,-0.8,1.8,2471.455,13.29,0.018,334.8
2023-11-18T06:04:02,42.805,6.029,-0.012,0.031,0.012,105.0,104.0,104.0,13.4,1505.2,339.3,-0.8,1.8,2471.482,13.29,0.033,338.8
2023-11-18T06:07:03,42.805,6.029,0.013,0.014,-0.02,105.0,104.0,104.0,13.4,1505.2,358.0,-0.8,1.8,2471.49,13.29,0.019,42.9
2023-11-18T06:10:03,42.805,6.029,-0.026,0.024,-0.018,106.0,106.0,104.0,13.3,1505.2,335.9,-0.8,1.8,2471.494,13.29,0.035,312.7
2023-11-18T06:13:03,42.805,6.029,-0.018,0.009,-0.039,106.0,104.0,104.0,13.3,1505.2,358.0,-0.8,1.8,2471.474,13.29,0.02,296.6
2023-11-18T06:16:03,42.805,6.029,-0.009,0.021,-0.021,106.0,105.0,103.0,13.3,1505.2,346.8,-0.7,1.8,2471.463,13.29,0.022,336.8
2023-11-18T06:19:03,42.805,6.029,-0.015,0.004,-0.005,103.0,103.0,105.0,13.4,1505.2,351.6,-0.8,1.8,2471.443,13.29,0.015,284.9
2023-11-18T06:22:03,42.805,6.029,-0.017,0.031,-0.005,105.0,103.0,103.0,13.4,1505.2,353.8,-0.8,1.8,2471.468,13.29,0.035,331.3
2023-11-18T06:25:03,42.805,6.029,-0.011,0.031,-0.017,106.0,105.0,104.0,13.4,1505.2,337.3,-0.8,1.8,2471.477,13.29,0.032,340.5
2023-11-18T06:28:03,42.805,6.029,-0.019,0.017,-0.026,106.0,104.0,104.0,13.4,1505.2,2.5,-0.8,1.8,2471.459,13.29,0.025,311.8
2023-11-18T06:31:03,42.805,6.029,-0.015,0.013,-0.023,103.0,105.0,103.0,13.4,1505.2,355.4,-0.8,1.8,2471.504,13.29,0.019,310.9
2023-11-18T06:34:03,42.805,6.029,-0.009,0.019,-0.038,106.0,105.0,104.0,13.4,1505.2,357.4,-0.8,1.8,2471.443,13.29,0.021,334.7
2023-11-18T06:37:03,42.805,6.029,0.0,0.001,-0.056,105.0,105.0,103.0,13.4,1505.2,349.9,-0.8,1.8,2471.497,13.29,0.001,0.0
2023-11-18T06:40:03,42.805,6.029,-0.024,0.031,-0.04,107.0,104.0,102.0,13.4,1505.2,351.0,-0.8,1.8,2471.462,13.29,0.039,322.3
2023-11-18T06:43:03,42.805,6.029,-0.015,0.025,-0.012,104.0,105.0,102.0,13.3,1505.2,342.8,-0.8,1.8,2471.504,13.29,0.029,329.0
2023-11-18T06:52:02,42.805,6.029,0.0,0.025,-0.021,105.0,105.0,103.0,13.4,1505.2,341.3,-0.7,1.8,2471.5,13.29,0.025,0.0
2023-11-18T06:55:03,42.805,6.029,0.01,0.034,-0.002,105.0,104.0,103.0,13.4,1505.2,349.4,-0.7,1.8,2471.56,13.29,0.035,16.4
2023-11-18T06:58:03,42.805,6.029,-0.008,0.022,-0.04,105.0,105.0,104.0,13.4,1505.2,335.7,-0.8,1.8,2471.523,13.29,0.023,340.0
2023-11-18T07:04:03,42.805,6.029,0.008,0.016,-0.02,103.0,104.0,105.0,13.4,1505.2,353.4,-0.8,1.8,2471.581,13.29,0.017,26.6
2023-11-18T07:07:02,42.805,6.029,-0.011,0.007,-0.017,107.0,108.0,103.0,13.4,1505.2,346.3,-0.7,1.8,2471.521,13.29,0.013,302.5
2023-11-18T07:10:03,42.805,6.029,-0.013,0.033,0.012,105.0,105.0,103.0,13.4,1505.2,340.7,-0.8,1.8,2471.538,13.29,0.035,338.5
2023-11-18T07:13:03,42.805,6.029,-0.009,0.015,-0.029,105.0,105.0,103.0,13.3,1505.2,343.1,-0.7,1.8,2471.549,13.29,0.017,329.0
2023-11-18T07:16:03,42.805,6.029,-0.008,0.018,-0.037,104.0,103.0,104.0,13.4,1505.2,355.8,-0.8,1.8,2471.513,13.29,0.019,336.0
2023-11-18T07:19:03,42.805,6.029,-0.014,0.044,0.003,105.0,105.0,104.0,13.3,1505.2,354.8,-0.8,1.8,2471.522,13.29,0.046,342.4
2023-11-18T07:22:03,42.805,6.029,-0.016,0.001,-0.038,106.0,104.0,103.0,13.3,1505.2,0.9,-0.8,1.8,2471.512,13.29,0.016,273.6
2023-11-18T07:25:03,42.805,6.029,-0.001,-0.002,-0.029,105.0,103.0,104.0,13.4,1505.2,349.3,-0.8,1.8,2471.515,13.29,0.002,206.6
2023-11-18T07:28:03,42.805,6.029,-0.031,0.053,0.011,104.0,106.0,102.0,13.4,1505.2,353.0,-0.8,1.8,2471.555,13.29,0.061,329.7
2023-11-18T07:31:03,42.805,6.029,-0.004,0.02,-0.016,106.0,105.0,102.0,13.4,1505.2,358.2,-0.8,1.8,2471.54,13.29,0.02,348.7
2023-11-18T07:34:03,42.805,6.029,0.005,0.018,0.002,107.0,105.0,104.0,13.4,1505.2,354.4,-0.8,1.8,2471.538,13.29,0.018,15.5
2023-11-18T07:37:03,42.805,6.029,-0.002,0.024,-0.005,104.0,104.0,104.0,13.3,1505.2,351.7,-0.8,1.8,2471.537,13.29,0.024,355.2
2023-11-18T07:40:03,42.805,6.029,-0.005,0.017,-0.025,104.0,104.0,103.0,13.3,1505.2,1.7,-0.8,1.8,2471.532,13.29,0.017,343.6
2023-11-18T07:43:03,42.805,6.029,0.004,0.019,-0.023,103.0,105.0,104.0,13.3,1505.2,334.8,-0.8,1.8,2471.527,13.29,0.019,11.9
2023-11-18T07:46:03,42.805,6.029,0.023,0.017,-0.008,106.0,105.0,102.0,13.4,1505.2,348.5,-0.8,1.8,2471.55,13.29,0.028,53.5
2023-11-18T07:49:03,42.805,6.029,0.014,0.032,-0.001,105.0,103.0,103.0,13.4,1505.2,344.0,-0.8,1.8,2471.564,13.29,0.034,23.6
2023-11-18T07:52:03,42.805,6.029,-0.02,0.023,-0.009,104.0,105.0,102.0,13.4,1505.2,342.7,-0.7,1.8,2471.525,13.29,0.03,319.0
2023-11-18T07:55:03,42.805,6.029,0.012,0.032,-0.006,103.0,106.0,103.0,13.3,1505.2,349.2,-0.7,1.8,2471.56,13.29,0.034,20.6
2023-11-18T07:58:03,42.805,6.029,0.009,0.0,-0.036,103.0,105.0,104.0,13.4,1505.2,350.2,-0.8,1.8,2471.524,13.29,0.009,90.0
2023-11-18T08:04:03,42.805,6.029,-0.008,0.02,-0.027,106.0,104.0,104.0,13.4,1505.2,345.7,-0.8,1.8,2471.579,13.29,0.021,338.2
2023-11-18T08:07:03,42.805,6.029,-0.005,0.032,-0.017,105.0,105.0,102.0,13.4,1505.2,348.6,-0.8,1.8,2471.571,13.29,0.032,351.1
2023-11-18T08:10:03,42.805,6.029,0.002,0.008,-0.011,103.0,105.0,102.0,13.4,1505.2,342.6,-0.7,1.8,2471.581,13.29,0.008,14.0
2023-11-18T08:13:03,42.805,6.029,-0.005,0.006,-0.036,105.0,106.0,105.0,13.4,1505.2,352.7,-0.8,1.8,2471.581,13.29,0.007,320.2
2023-11-18T08:16:03,42.805,6.029,-0.002,0.025,-0.054,106.0,104.0,103.0,13.3,1505.2,350.2,-0.8,1.8,2471.591,13.29,0.025,355.4
2023-11-18T08:19:03,42.805,6.029,0.0,0.027,-0.011,103.0,105.0,104.0,13.3,1505.2,352.6,-0.7,1.8,2471.611,13.29,0.026,0.0
2023-11-18T08:22:03,42.805,6.029,0.006,0.002,-0.031,104.0,104.0,103.0,13.3,1505.2,349.2,-0.8,1.8,2471.559,13.29,0.006,71.6
2023-11-18T08:25:03,42.805,6.029,0.005,0.004,-0.019,105.0,106.0,103.0,13.4,1505.2,358.2,-0.8,1.8,2471.603,13.29,0.006,51.3
2023-11-18T08:28:03,42.805,6.029,-0.002,0.014,0.004,104.0,105.0,102.0,13.3,1505.2,358.3,-0.7,1.8,2471.593,13.29,0.014,351.9
2023-11-18T08:31:03,42.805,6.029,0.008,0.004,-0.034,105.0,105.0,104.0,13.4,1505.2,345.7,-0.8,1.8,2471.596,13.29,0.008,63.4
2023-11-18T08:34:03,42.805,6.029,0.014,0.003,-0.028,106.0,103.0,102.0,13.4,1505.2,341.3,-0.7,1.8,2471.563,13.29,0.014,77.9
2023-11-18T08:37:03,42.805,6.029,0.01,0.016,-0.012,109.0,106.0,102.0,13.4,1505.2,346.8,-0.8,1.8,2471.598,13.29,0.018,32.0
2023-11-18T08:40:03,42.805,6.029,-0.016,0.025,-0.022,104.0,106.0,103.0,13.4,1505.2,342.1,-0.7,1.8,2471.556,13.29,0.029,327.4
2023-11-18T08:43:03,42.805,6.029,-0.002,0.006,-0.009,107.0,104.0,104.0,13.4,1505.2,343.5,-0.8,1.8,2471.585,13.3,0.006,341.6
2023-11-18T08:46:03,42.805,6.029,0.001,0.021,-0.006,105.0,104.0,103.0,13.3,1505.2,350.3,-0.8,1.8,2471.576,13.3,0.021,2.7
2023-11-18T08:49:03,42.805,6.029,0.012,0.008,-0.029,103.0,105.0,103.0,13.4,1505.2,356.6,-0.8,1.8,2471.589,13.3,0.014,56.3
2023-11-18T08:52:03,42.805,6.029,0.0,0.008,-0.032,104.0,105.0,103.0,13.4,1505.2,352.5,-0.7,1.8,2471.603,13.3,0.008,0.0
2023-11-18T08:55:03,42.805,6.029,0.009,0.009,-0.034,107.0,105.0,103.0,13.3,1505.2,351.4,-0.8,1.8,2471.605,13.3,0.012,45.0
2023-11-18T08:58:03,42.805,6.029,0.007,0.013,-0.003,106.0,103.0,104.0,13.4,1505.2,332.6,-0.7,1.8,2471.578,13.3,0.014,28.3
2023-11-18T09:04:02,42.805,6.029,0.006,0.015,-0.022,104.0,104.0,103.0,13.4,1505.2,349.6,-0.8,1.8,2471.636,13.29,0.016,21.8
2023-11-18T09:07:03,42.805,6.029,0.002,0.017,-0.016,106.0,104.0,102.0,13.4,1505.2,345.1,-0.8,1.8,2471.635,13.29,0.017,6.7
2023-11-18T09:10:03,42.805,6.029,-0.013,0.026,-0.024,105.0,105.0,103.0,13.4,1505.2,345.9,-0.8,1.8,2471.656,13.3,0.029,333.4
2023-11-18T09:13:03,42.805,6.029,-0.013,0.006,-0.002,104.0,103.0,104.0,13.3,1505.2,342.1,-0.8,1.8,2471.619,13.29,0.014,294.8
2023-11-18T09:16:03,42.805,6.029,0.006,0.015,-0.016,106.0,104.0,101.0,13.4,1505.2,346.7,-0.8,1.8,2471.646,13.29,0.016,21.8
2023-11-18T09:19:03,42.805,6.029,0.005,-0.004,-0.029,105.0,103.0,103.0,13.3,1505.2,348.2,-0.8,1.8,2471.601,13.29,0.006,128.7
2023-11-18T09:22:03,42.805,6.029,-0.013,0.0,-0.029,106.0,105.0,104.0,13.3,1505.2,342.0,-0.8,1.8,2471.657,13.29,0.013,270.0
2023-11-18T09:25:03,42.805,6.029,-0.008,0.014,-0.044,105.0,105.0,102.0,13.3,1505.2,341.3,-0.7,1.8,2471.601,13.29,0.016,330.3
2023-11-18T09:28:03,42.805,6.029,0.001,0.011,-0.03,105.0,104.0,103.0,13.4,1505.2,341.0,-0.8,1.8,2471.641,13.29,0.011,5.2
2023-11-18T09:31:03,42.805,6.029,-0.008,0.003,-0.017,104.0,104.0,103.0,13.3,1505.2,336.0,-0.8,1.8,2471.61,13.3,0.008,290.6
2023-11-18T09:34:03,42.805,6.029,-0.032,0.015,-0.032,106.0,105.0,105.0,13.4,1505.2,355.0,-0.7,1.8,2471.631,13.3,0.035,295.1
2023-11-18T09:37:03,42.805,6.029,0.002,0.021,-0.004,104.0,107.0,103.0,13.3,1505.2,336.9,-0.8,1.8,2471.605,13.3,0.021,5.4
2023-11-18T09:40:03,42.805,6.029,-0.011,0.016,0.001,104.0,104.0,103.0,13.4,1505.2,354.2,-0.7,1.8,2471.641,13.3,0.019,325.5
2023-11-18T09:43:03,42.805,6.029,0.015,0.0,-0.028,105.0,104.0,102.0,13.3,1505.2,353.6,-0.7,1.8,2471.615,13.29,0.015,90.0
2023-11-18T09:46:03,42.805,6.029,0.018,0.02,-0.011,106.0,105.0,103.0,13.4,1505.2,353.9,-0.8,1.8,2471.601,13.29,0.026,42.0
2023-11-18T09:49:03,42.805,6.029,0.004,0.028,-0.021,104.0,103.0,103.0,13.4,1505.2,349.7,-0.7,1.8,2471.624,13.29,0.028,8.1
2023-11-18T09:52:03,42.805,6.029,-0.009,0.006,-0.021,105.0,102.0,104.0,13.4,1505.2,339.3,-0.8,1.9,2471.647,13.29,0.01,303.7
2023-11-18T09:55:03,42.805,6.029,-0.013,0.013,-0.041,104.0,104.0,103.0,13.4,1505.2,350.5,-0.8,1.8,2471.652,13.29,0.018,315.0
2023-11-18T09:58:03,42.805,6.029,-0.002,0.0,-0.033,104.0,104.0,103.0,13.4,1505.2,342.1,-0.8,1.8,2471.62,13.29,0.002,270.0
2023-11-18T10:04:03,42.805,6.029,-0.023,0.013,-0.031,105.0,104.0,103.0,13.3,1505.2,353.6,-0.8,1.8,2471.686,13.29,0.026,299.5
2023-11-18T10:07:03,42.805,6.029,-0.014,0.017,-0.011,104.0,104.0,104.0,13.4,1505.2,355.1,-0.8,1.8,2471.693,13.29,0.022,320.5